[[{"header":{"parameterUnit":"m.s-1","parameterCategory":1,"la1":30.2991,"la2":30.254,"lo1":-89.0895,"lo2":-89.0444,"dy":0.0017,"dx":0.0017,"nx":28,"ny":28,"refTime":"2024-06-24T21:00:00:Z","depth":0,"parameterNumber":2,"parameterNumberName":"U-component_of_WINDS"},"data":[0,0,0,0,0,0,0,0,0,0,0,0,0,0,0,0,0,0,0,0,0,0,0,0,0,0,0,0,0,0,0,0,0,0,0,0,0,0,0,0,0,0,0,0,0,0,0,0,0,0,0,0,0,0,0,0,0,0,4.988,4.9881,0,5.0036,5.0038,5.004,4.997,4.9966,4.9962,4.9958,5.0122,5.013,5.0138,0,0,0,0,0,0,0,0,0,0,0,0,0,4.9523,4.9529,4.9879,4.9881,4.9883,5.0036,5.0038,5.004,4.997,4.9966,4.9961,4.9956,5.0119,5.0129,5.0138,0,0,0,0,0,0,0,0,0,0,0,0,0,4.9678,4.9532,4.9879,4.9867,4.9867,5.0035,5.0038,5.0041,4.9971,4.9966,4.996,4.9954,5.0116,5.0128,5.014,5.033,0,0,5.0176,5.0182,0,0,0,0,0,0,0,0,4.967,4.9691,4.9867,4.9868,4.9869,4.9977,4.9972,5.0138,4.9973,4.9932,4.9958,4.9951,5.0079,5.0094,5.0136,5.0338,5.0345,5.0177,5.0185,5.019,5.0193,0,0,0,0,0,0,0,4.9659,4.9684,4.9941,4.9869,4.9871,4.9854,4.987,5.0003,5.0036,4.9935,4.993,4.995,5.0078,5.0124,5.0139,5.0347,5.0177,5.0188,5.0195,5.02,5.0711,5.0717,0,0,0,0,0,0,4.9648,4.9676,4.9936,4.9946,4.9753,4.9865,4.9883,4.9948,5.0035,5.0042,4.9954,4.9946,5.0107,5.0125,5.0145,5.0371,5.019,5.0201,5.0208,5.0705,5.0712,5.0719,0,0,0,0,0,0,4.964,4.9672,4.993,4.981,4.9841,4.9878,4.9952,4.9955,5.0,5.0049,5.0055,4.9995,5.0103,5.0128,5.0284,5.0376,5.0206,5.0217,5.0697,5.0707,5.0716,5.0827,0,0,0,0,0,0,4.963,4.9669,4.9742,4.9812,4.9848,5.0066,4.9958,4.9962,5.0021,5.0011,5.0089,5.0096,5.01,5.0266,5.0296,5.0389,5.0227,5.0689,5.0702,5.0713,5.0815,5.0839,5.086,0,0,0,0,0,4.9618,4.9768,4.9746,4.9777,4.9939,5.0072,5.0092,5.0093,5.0029,5.0101,5.0133,5.0094,5.0361,5.0283,5.0315,5.0414,5.0683,5.0698,5.0712,5.0805,5.0835,5.0859,0,0,0,0,0,0,4.9709,4.9777,4.9753,4.993,4.9995,5.006,5.0151,5.0124,5.021,5.0198,5.0196,5.0214,5.0375,5.041,5.0321,5.0602,5.0513,5.0534,5.0572,5.0601,5.0622,5.061,5.0236,0,0,0,0,0,4.9749,4.9851,4.9905,5.0056,5.009,5.0115,5.0173,5.0168,5.0236,5.0264,5.0306,5.0375,5.0474,5.054,5.0634,5.0821,5.0836,5.0904,5.0927,5.0945,5.0963,5.1063,5.1093,5.0767,5.0767,5.0766,0,0,4.9834,4.9884,4.9948,5.0075,5.0125,5.0231,5.0139,5.0255,5.0333,5.0282,5.043,5.0465,5.0541,5.0712,5.079,5.0747,5.1057,5.0963,5.0977,5.0986,5.1081,5.1111,5.1139,5.0777,5.0775,5.0773,0,0,5.0042,5.0091,5.0221,5.0272,5.0349,5.0365,5.0396,5.0465,5.0484,5.0634,5.0597,5.069,5.0862,5.0917,5.0968,5.1196,5.1163,5.1227,5.1343,5.144,5.1465,5.1488,5.1568,5.1597,5.1245,5.1246,5.1246,0,5.0139,5.0295,5.0291,5.0409,5.0466,5.0423,5.0555,5.0606,5.071,5.075,5.07,5.0913,5.0961,5.1144,5.12,5.1243,5.1278,5.1217,5.1462,5.1485,5.1506,5.1582,5.1612,5.1253,5.1252,5.1251,5.125,0,5.0408,5.0517,5.0613,5.0713,5.078,5.0905,5.0921,5.099,5.0979,5.1,5.1152,5.1209,5.1312,5.1356,5.1347,5.1538,5.1508,5.1461,5.1371,5.1544,5.1615,5.1644,5.1263,5.126,5.1258,5.1256,0,0,5.0678,5.0773,5.0808,5.0852,5.0933,5.1017,5.114,5.124,5.1298,5.1372,5.1474,5.162,5.1575,5.1633,5.163,5.1715,5.189,5.1657,5.1658,5.1696,5.2102,5.2136,5.2169,5.1869,5.1875,5.1879,5.2094,0,5.089,5.1103,5.1103,5.13,5.14,5.136,5.1467,5.1528,5.1551,5.164,5.1666,5.1768,5.1703,5.1737,5.182,5.1851,5.1971,5.1836,5.1964,5.1968,5.1944,5.2207,5.2244,5.2444,5.2123,5.2127,5.2131,0,5.1166,5.1246,5.1452,5.1517,5.1559,5.1655,5.1746,5.1831,5.19,5.1911,5.1975,5.1958,5.2083,5.199,5.2161,5.2069,5.2122,5.2145,5.2153,5.2163,5.2059,5.2223,5.2508,5.2537,5.2175,5.2171,5.2168,0,5.134,5.15,5.1643,5.1682,5.1762,5.1829,5.1866,5.1929,5.1989,5.2069,5.2107,5.2202,5.2254,5.2327,5.2337,5.2269,5.2509,5.2417,5.252,5.252,5.2571,5.2568,5.2867,5.2609,5.2609,5.2608,5.2607,0,5.1576,5.1703,5.1721,5.1809,5.195,5.195,5.209,5.2121,5.2177,5.227,5.2244,5.2332,5.234,5.2431,5.244,5.2579,5.2604,5.2615,5.2616,5.2617,5.2615,5.265,5.2635,5.2616,5.2614,5.2613,5.2611,0,5.1793,5.181,5.1963,5.2026,5.2044,5.2146,5.2199,5.2283,5.2303,5.2422,5.245,5.2482,5.2588,5.2605,5.273,5.2735,5.2902,5.2889,5.2878,5.2876,5.2977,5.2967,5.3308,5.3352,5.3067,5.307,5.3072,0,5.1941,5.2038,5.211,5.217,5.2209,5.2307,5.2367,5.237,5.2434,5.2519,5.2593,5.2696,5.2778,5.2949,5.2984,5.3079,5.3067,5.318,5.3081,5.3078,5.3066,5.3059,5.3068,5.3199,5.3202,5.3204,5.3206,0,5.2202,5.2206,5.2293,5.2384,5.2456,5.2528,5.2596,5.2647,5.2659,5.2732,5.2839,5.2903,5.3029,5.3131,5.3225,5.3263,5.3237,5.3237,5.3266,5.3267,5.3255,5.3261,5.2928,5.3229,5.3227,5.3225,5.3224,5.3223,5.2388,5.2471,5.2535,5.2632,5.2683,5.2747,5.2828,5.2858,5.2947,5.3049,5.3046,5.3163,5.3229,5.3352,5.3397,5.3488,5.3452,5.3494,5.3504,5.3514,5.3522,5.3242,5.3506,5.3505,5.3505,5.3504,5.3504,0,5.2646,5.2684,5.2775,5.2869,5.2946,5.2914,5.2987,5.3053,5.3156,5.3219,5.33,5.3422,5.352,5.3563,5.366,5.3725,5.3715,5.375,5.3744,5.3753,5.3551,5.3515,5.3756,5.3756,5.3756,5.3756,5.3756,5.3756,5.2789,5.2927,5.2938,5.3101,5.3139,5.3252,5.3297,5.3355,5.3405,5.3542,5.3623,5.3649,5.3704,5.3804,5.3893,5.3903,5.3939,5.3979,5.3983,5.3793,5.3768,5.3743,5.371,5.3987,5.3988,5.4177,5.4179,5.4181]},{"header":{"parameterUnit":"m.s-1","parameterCategory":1,"la1":30.2991,"la2":30.254,"lo1":-89.0895,"lo2":-89.0444,"dy":0.0017,"dx":0.0017,"nx":28,"ny":28,"refTime":"2024-06-24T21:00:00:Z","depth":0,"parameterNumber":3,"parameterNumberName":"V-component_of_WINDS"},"data":[0,0,0,0,0,0,0,0,0,0,0,0,0,0,0,0,0,0,0,0,0,0,0,0,0,0,0,0,0,0,0,0,0,0,0,0,0,0,0,0,0,0,0,0,0,0,0,0,0,0,0,0,0,0,0,0,0,0,1.1532,1.1532,0,1.1597,1.1597,1.1598,1.1595,1.1594,1.1593,1.1592,1.166,1.1662,1.1665,0,0,0,0,0,0,0,0,0,0,0,0,0,1.1405,1.1407,1.1532,1.1532,1.1533,1.1596,1.1597,1.1598,1.1595,1.1594,1.1593,1.1592,1.1659,1.1662,1.1665,0,0,0,0,0,0,0,0,0,0,0,0,0,1.1464,1.1408,1.1531,1.1539,1.154,1.1596,1.1597,1.1599,1.1595,1.1594,1.1592,1.1591,1.1658,1.1662,1.1666,1.1718,0,0,1.1678,1.168,0,0,0,0,0,0,0,0,1.146,1.1469,1.1537,1.1539,1.154,1.1586,1.1577,1.1639,1.1596,1.1575,1.1592,1.159,1.1637,1.1642,1.1657,1.1722,1.1724,1.1678,1.1681,1.1682,1.1684,0,0,0,0,0,0,0,1.1456,1.1466,1.1557,1.1538,1.154,1.1539,1.1546,1.1589,1.1613,1.1576,1.1576,1.1584,1.1637,1.1654,1.1659,1.1725,1.1678,1.1682,1.1684,1.1686,1.1835,1.1837,0,0,0,0,0,0,1.1451,1.1462,1.1555,1.1559,1.1496,1.1543,1.1551,1.1573,1.1612,1.1617,1.1585,1.1583,1.1647,1.1654,1.1661,1.1726,1.1682,1.1686,1.1688,1.1834,1.1836,1.1837,0,0,0,0,0,0,1.1448,1.1459,1.1553,1.1511,1.1523,1.1547,1.1572,1.1575,1.1591,1.1619,1.1623,1.1598,1.1647,1.1656,1.1704,1.1728,1.1688,1.1692,1.1832,1.1834,1.1836,1.1854,0,0,0,0,0,0,1.1444,1.1458,1.1478,1.1511,1.1525,1.1594,1.1573,1.1577,1.1598,1.1597,1.1632,1.1636,1.1646,1.1698,1.1708,1.1733,1.1695,1.183,1.1833,1.1836,1.1852,1.1857,1.1861,0,0,0,0,0,1.144,1.1481,1.1479,1.1491,1.1551,1.1596,1.1603,1.1614,1.16,1.1621,1.1638,1.1635,1.1723,1.1703,1.1714,1.174,1.1828,1.1832,1.1836,1.1849,1.1856,1.1861,0,0,0,0,0,0,1.1451,1.1486,1.1484,1.1537,1.1563,1.1595,1.1621,1.1621,1.1652,1.1649,1.1661,1.1669,1.1717,1.1734,1.171,1.1793,1.1774,1.178,1.1781,1.1787,1.1792,1.1787,1.1698,0,0,0,0,0,1.1459,1.1493,1.1521,1.1565,1.1579,1.1598,1.1618,1.1623,1.1651,1.1662,1.1683,1.171,1.1744,1.1767,1.1799,1.1853,1.1861,1.1877,1.1882,1.1886,1.1891,1.192,1.1928,1.1849,1.1849,1.1849,0,0,1.1478,1.1501,1.1521,1.1568,1.1589,1.1624,1.1607,1.1644,1.167,1.1668,1.1715,1.1731,1.1762,1.1814,1.1837,1.1829,1.1914,1.189,1.1893,1.1896,1.1925,1.1932,1.1939,1.1851,1.1851,1.1851,0,0,1.1529,1.1549,1.1588,1.1609,1.1641,1.1653,1.1662,1.1694,1.1704,1.1751,1.175,1.1781,1.1839,1.1861,1.188,1.1938,1.1936,1.1948,1.1974,1.2003,1.2009,1.2014,1.2035,1.2042,1.1953,1.1953,1.1953,0,1.1548,1.1599,1.1608,1.1646,1.1666,1.1665,1.1705,1.1725,1.1766,1.178,1.1769,1.1842,1.1863,1.1919,1.1933,1.1948,1.1959,1.1945,1.2007,1.2013,1.2018,1.2038,1.2046,1.1954,1.1954,1.1954,1.1954,0,1.1621,1.1656,1.1684,1.1723,1.1747,1.1785,1.18,1.1823,1.1826,1.1839,1.1886,1.1911,1.1949,1.1962,1.1966,1.2019,1.2013,1.2004,1.1986,1.2027,1.2046,1.2053,1.1956,1.1956,1.1955,1.1955,0,0,1.1682,1.1725,1.1735,1.1752,1.1786,1.1814,1.1852,1.1888,1.1907,1.1935,1.1967,1.2015,1.2008,1.2029,1.2035,1.206,1.2104,1.2049,1.205,1.2059,1.2164,1.217,1.2179,1.2103,1.2104,1.2105,1.2161,0,1.1737,1.1804,1.1813,1.1872,1.1905,1.1904,1.1937,1.1961,1.1974,1.2004,1.2018,1.2053,1.204,1.2052,1.2077,1.2094,1.2126,1.209,1.2133,1.2134,1.2126,1.2189,1.2196,1.2248,1.2169,1.217,1.2171,0,1.181,1.1839,1.1902,1.1931,1.1945,1.1974,1.2008,1.2036,1.2063,1.2071,1.2094,1.2097,1.2136,1.2115,1.2168,1.2144,1.2162,1.2172,1.2174,1.218,1.2156,1.2196,1.2265,1.2273,1.2183,1.2182,1.2181,0,1.1849,1.1904,1.1948,1.1963,1.1998,1.2018,1.2034,1.206,1.2081,1.211,1.2123,1.2156,1.2175,1.22,1.2212,1.2195,1.2265,1.2245,1.2273,1.2272,1.2288,1.2287,1.2361,1.2299,1.2299,1.2298,1.2298,0,1.1909,1.1948,1.1966,1.1993,1.2036,1.2045,1.2087,1.2102,1.2125,1.2155,1.2156,1.2184,1.2197,1.2227,1.2236,1.228,1.2288,1.2295,1.2297,1.2295,1.2295,1.2308,1.2305,1.23,1.23,1.23,1.2299,0,1.196,1.1974,1.2022,1.2051,1.2059,1.2089,1.2114,1.214,1.2152,1.219,1.22,1.2219,1.2254,1.2268,1.2311,1.2317,1.2367,1.2366,1.2358,1.2359,1.2386,1.2383,1.2471,1.2483,1.2413,1.2413,1.2414,0,1.1999,1.2028,1.2059,1.2079,1.2095,1.2128,1.2149,1.2159,1.2181,1.2213,1.2236,1.2271,1.23,1.2356,1.2374,1.2407,1.2407,1.2436,1.2413,1.241,1.2408,1.2407,1.241,1.2441,1.2441,1.2442,1.2442,0,1.2065,1.207,1.21,1.2132,1.2157,1.2183,1.2209,1.2225,1.2239,1.2263,1.2299,1.2321,1.2365,1.24,1.2434,1.245,1.2449,1.2449,1.2458,1.2457,1.2451,1.2455,1.237,1.2448,1.2447,1.2447,1.2447,1.2446,1.2111,1.2137,1.2163,1.2196,1.2216,1.2239,1.2265,1.228,1.2311,1.2347,1.2351,1.2389,1.2415,1.246,1.2477,1.2508,1.25,1.2512,1.2515,1.2518,1.252,1.2445,1.2514,1.2514,1.2514,1.2513,1.2513,0,1.2178,1.2194,1.2225,1.226,1.2286,1.2281,1.2309,1.2331,1.2365,1.2389,1.2417,1.2458,1.2491,1.2511,1.2545,1.2565,1.2566,1.2574,1.2573,1.2576,1.2525,1.2515,1.2573,1.2573,1.2573,1.2573,1.2573,1.2573,1.2216,1.2259,1.2267,1.232,1.2336,1.2374,1.239,1.2411,1.243,1.2476,1.2503,1.2516,1.2538,1.2573,1.2604,1.2609,1.2621,1.263,1.2635,1.2586,1.258,1.2574,1.2565,1.2633,1.2633,1.2684,1.2684,1.2685]}]]